Regional Weather Roundup
Issued by NWS

Home | Current Version | Previous Version | Graphics & Text | Print | Product List | Glossary On
Versions: 1 2 3 4 5 6 7 8 9 10 11 12 13 14 15 16 17 18 19 20 21 22 23 24 25 26 27 28 29 30 31 32 33 34 35 36 37 38 39 40 41 42 43 44 45 46 47 48 49 50
000
ASUS43 KDTX 281301
RWRMI
MICHIGAN HOURLY REGIONAL WEATHER ROUNDUP
NATIONAL WEATHER SERVICE DETROIT/PONTIAC MI
900 AM EDT THU MAY 28 2015

NOTE: "FAIR" INDICATES FEW OR NO CLOUDS BELOW 12,000 FEET WITH NO
SIGNIFICANT WEATHER AND/OR OBSTRUCTION TO VISIBILITY.

MIZ047>049-052>055-059>063-066>070-074>076-081>083-281400-
SOUTHEAST LOWER MICHIGAN

CITY           SKY/WX    TMP DP  RH WIND       PRES   REMARKS
ADRIAN         SUNNY     65  57  75 E5        30.24S
ALMA           SUNNY     63  59  85 S6        30.22S
ANN ARBOR      SUNNY     67  59  75 VRB5      30.23S
BAD AXE        SUNNY     64  54  68 S6        30.24R
CARO           SUNNY     65  59  81 S6        30.23R
DETROIT CITY   SUNNY     68  56  65 CALM      30.24R
DETROIT        MOSUNNY   69  58  67 CALM      30.24S
FLINT          SUNNY     67  59  75 CALM      30.24R
GROSSE ILE     SUNNY     66  59  77 CALM      30.23R
HILLSDALE      SUNNY     66  60  79 E5        30.24S
HOWELL         SUNNY     63  60  90 CALM      30.24S

CITY           SKY/WX    TMP DP  RH WIND       PRES   REMARKS
JACKSON        SUNNY     65  60  84 CALM      30.23F
LAMBERTVILLE   SUNNY     66  59  77 E5        30.24R
LANSING        SUNNY     65  57  75 S6        30.24R
LAPEER         FAIR      65  57  76 CALM      30.24S
MASON          SUNNY     60  58  95 CALM      30.24S
MONROE         SUNNY     66  59  77 E3        30.22S
MT. CLEMENS    SUNNY     65  59  78 VRB2      30.22R
PONTIAC        SUNNY     65  56  72 SE5       30.23R
PORT HOPE        N/A     65  52  62 S5        30.22R
PORT HURON     SUNNY     63  59  88 CALM      30.24R
TRI CITIES     SUNNY     65  57  75 S7        30.22S
MIDLAND        FAIR      66  56  70 SW3       30.21S
TROY           SUNNY     66  56  70 CALM      30.25S
SAGINAW HB     SUNNY     64  63  94 S6        30.22S
$$
MIZ043>046-050>051-056>058-064>065-071>073-077>080-281400-
SOUTHWEST LOWER MICHIGAN

CITY           SKY/WX    TMP DP  RH WIND       PRES   REMARKS
BATTLE CREEK   SUNNY     65  57  75 E3        30.23F
BENTON HARBOR  SUNNY     64  57  78 VRB3      30.21R
BIG RAPIDS     SUNNY     63  55  76 W5        30.20S HAZE
COLDWATER      SUNNY     63  60  90 E3        30.23S
FREMONT        FAIR      61  57  87 SW3       30.20S
HOLLAND          N/A     63  57  81 S5        30.22R
GRAND RAPIDS   MOSUNNY   63  57  81 SE3       30.22S
IONIA          FAIR      65  56  70 SW3       30.22S
KALAMAZOO      SUNNY     64  58  80 S3        30.23S
LUDINGTON      SUNNY     64  56  77 CALM      30.19S
MARSHALL       SUNNY     63  58  85 CALM      30.23S
MOUNT PLEASANT SUNNY     65  55  69 CALM      30.21R
MUSKEGON       SUNNY     64  55  72 CALM      30.20S
SOUTH HAVEN    SUNNY     65  58  76 CALM      30.21S
$$
MIZ016>042-281400-
NORTHERN LOWER MICHIGAN

CITY           SKY/WX    TMP DP  RH WIND       PRES   REMARKS
ALPENA         SUNNY     65  55  70 W5        30.21R
BEAVER ISLAND  SUNNY     55  49  78 W6        30.19R
BELLAIRE       SUNNY     62  55  78 SW5       30.19S
CADILLAC       SUNNY     62  56  81 SW3       30.20S
FRANKFORT      SUNNY     64  51  63 W3        30.18S
GAYLORD        SUNNY     62  57  83 W7        30.20R
GRAYLING       SUNNY     62  55  78 W5        30.21R
HARBOR SPRINGS FOG       52  51  99 CALM      30.19S VSB<1/4
HOUGHTON LAKE  SUNNY     62  55  77 SW3       30.21R
MANISTEE       SUNNY     61  54  77 CALM      30.20S
OSCODA         MOSUNNY   65  58  78 S3        30.20F
PELLSTON       SUNNY     60  54  80 CALM      30.19S
ROGERS CITY    SUNNY     61  55  79 NE3       30.21R
TRAVERSE CITY  SUNNY     65  57  75 SW3       30.17R
$$
MIZ007>008-015-281400-
EASTERN UPPER MICHIGAN

CITY           SKY/WX    TMP DP  RH WIND       PRES   REMARKS
KINROSS        MOSUNNY   55  54  94 CALM      30.19R
MACKINAC ISLAN SUNNY     54  52  92 W3        30.19S
NEWBERRY       FOG       51  51  99 NE8       30.18S VSB<1/4
S. S. MARIE    SUNNY     59  54  83 CALM      30.18R
$$
MIZ004>006-011>014-085-281400-
CENTRAL UPPER MICHIGAN

CITY           SKY/WX    TMP DP  RH WIND       PRES   REMARKS
MANISTIQUE     FOG       52  51  97 NE5       30.17F VSB 1/2
ESCANABA       PTSUNNY   55  48  76 CALM      30.17S
MENOMINEE      SUNNY     63  55  77 CALM      30.15S
SAWYER-GWINN   FOG       43  43 100 N7        30.19R VSB 1/2
$$
MIZ001>003-009>011-084-281400-
WESTERN UPPER MICHIGAN

CITY           SKY/WX    TMP DP  RH WIND       PRES   REMARKS
IRON MOUNTAIN  MOSUNNY   58  54  86 SE7       30.15F
HOUGHTON       FOG       44  42  93 E10       30.18S VSB<1/4
COPPER HARBOR    N/A     47  44  90 S6        30.20R
IRONWOOD       SUNNY     57  55  94 E3        30.08F
$$

ABBREVIATIONS USED IN REMARKS
   TC - TEMPERATURE IN CELSIUS
  WCI - WIND CHILL INDEX
   HX - HEAT INDEX
  VSB - VISIBILITY




USA.gov is the U.S. government's official web portal to all federal, state and local government web resources and services.